Tracking 19634 objects as of 23-May-2019
HD Live streaming from Space Station
objects crossing your sky now

SL-16 R/B

Track SL-16 R/B now!
10-day predictions
SL-16 R/B is classified as:


NORAD ID: 22220
Int'l Code: 1992-076B
Perigee: 833.7 km
Apogee: 855.4 km
Inclination: 71.0 °
Period: 101.7 minutes
Semi major axis: 7215 km
RCS: 15.162 m2 (large)
Launch date: November 17, 1992
Source: Commonwealth of Independent States (former USSR) (CIS)
Launch site: TYURATAM MISSILE AND SPACE COMPLEX (TTMTR)

Note: This is a ROCKET BODY
aabbcc
Your satellite tracking list
Your tracking list is empty




NASA's NSSDC Master Catalog

Two Line Element Set (TLE):
1 22220U 92076B   19143.14208341  .00000223  00000-0  13586-3 0  9996
2 22220  71.0012  15.3154 0014981 277.2083 236.8941 14.16442478370590
Source of the keplerian elements: AFSPC